Home > Weather > Klosterneuburg > Past weeks

Flag for Austria Weather for the Past 2 Weeks in Klosterneuburg, Lower Austria, Austria

Now
58 °F

Overcast.


Feels Like: 58 °F
Forecast: 44 / 67 °F
Wind: 6 mph from Northwest

Location: Wien / Hohe Warte

Current Time: May 5, 2016 at 3:17:01 PM

Latest Report: May 5, 2016 at 2:00 PM


Visibility: 13 mi

Pressure: 30.25 "Hg

Humidity: 68%

Dew Point: 48 °F

Location of KlosterneuburgLocation

Historic Weather in Klosterneuburg — Graph

°F

Klosterneuburg Temperature Yesterday

Maximum temperature yesterday: 51 °F (at 1:00 AM)
Minimum temperature yesterday: 47 °F (at 11:00 AM)
Average temperature yesterday: 49 °F

High & Low Weather Summary for the Past Weeks

 TemperatureHumidityPressure
High69 °F (Apr 22, 4:00 PM)91% (Apr 24, 4:00 AM)30.39 "Hg (Apr 24, 4:00 AM)
Low33 °F (Apr 26, 6:00 AM)29% (Apr 20, 5:00 PM)29.57 "Hg (Apr 26, 7:00 PM)
Average51 °F63%29.99 "Hg
* Reported Apr 20 2:00 PM — May 5 2:00 PM, Klosterneuburg, Weather by CustomWeather, © 2016

Note: Actual official high and low records may vary slightly from our data, if they occured in-between our weather recording intervals... More about our weather records

Advertising

Klosterneuburg Weather History for the Previous 24 Hours

Scroll right to see more
 ConditionsComfort  
Time TempWeatherWind HumidityBarometerVisibility
2:00 PM
Thu, May 5
58 °FOvercast.6 mph68%30.25 "Hg12 mi
1:00 PM55 °FOvercast.5 mph72%30.28 "Hg12 mi
12:00 PM54 °FOvercast.3 mph77%30.29 "Hg12 mi
11:00 AM53 °FOvercast.7 mph78%30.29 "Hg12 mi
10:00 AM50 °FOvercast.5 mph82%30.30 "Hg12 mi
9:00 AM49 °FOvercast.5 mph85%30.29 "Hg12 mi
8:00 AM49 °FOvercast.6 mph85%30.29 "Hg12 mi
7:00 AM48 °FOvercast.6 mph86%30.29 "Hg16 mi
6:00 AM47 °FCool.6 mph87%30.29 "HgN/A
5:00 AM47 °FCool.6 mph86%30.28 "HgN/A
4:00 AM47 °FLight rain. Overcast.6 mph87%30.28 "Hg12 mi
3:00 AM47 °FCool.6 mph87%30.28 "HgN/A
2:00 AM47 °FOvercast.7 mph84%30.28 "Hg12 mi
1:00 AM47 °FCool.8 mph84%30.29 "HgN/A
12:00 AM47 °FCool.7 mph82%30.29 "HgN/A
11:00 PM
Wed, May 4
48 °FOvercast.8 mph81%30.28 "Hg19 mi
10:00 PM48 °FCool.10 mph80%30.26 "HgN/A
9:00 PM48 °FOvercast.8 mph82%30.25 "Hg31 mi
8:00 PM49 °FLight rain. Overcast.9 mph81%30.24 "Hg37 mi
7:00 PM49 °FLight rain. Overcast.8 mph81%30.22 "Hg31 mi
6:00 PM49 °FOvercast.7 mph79%30.22 "Hg16 mi
5:00 PM49 °FOvercast.8 mph81%30.20 "Hg16 mi
4:00 PM51 °FOvercast.8 mph82%30.19 "Hg12 mi
3:00 PM50 °FOvercast.8 mph80%30.20 "Hg12 mi
Weather by CustomWeather, © 2016

See weather overviewHow to use our weather pages